Overview Statistics Trail Chart Weather Telemetry Raw packets
 

This is the latest recevied weather packets stored in our database for station/object IZ1HMT-3. If no packets are shown the sender has not sent any weather packets the latest 10 day(s).

<< 22 23 24 25 26 27 28 >>
Time Temp. Humidity Pressure Rain* Wind** Luminosity Snow
1787912041 33.89° C 54% 1015.3 hPa - - - -
1787911443 32.22° C 59% 1015.6 hPa - - - -
1787910833 30.56° C 62% 1015.6 hPa - - - -
1787909624 30° C 67% 1016.1 hPa - - - -
1787909021 30° C 66% 1016.3 hPa - - - -
1787908418 30° C 69% 1017 hPa - - - -
1787907815 30.56° C 68% 1016.5 hPa - - - -
1787907210 32.22° C 60% 1017.1 hPa - - - -
1787906003 33.89° C 55% 1016.7 hPa - - - -
1787905400 35.56° C 49% 1016.8 hPa - - - -
1787904796 37.78° C 46% 1015.9 hPa - - - -
1787904192 36.67° C 47% 1016 hPa - - - -
1787903588 37.22° C 47% 1016.4 hPa - - - -
1787902985 34.44° C 54% 1016.1 hPa - - - -
1787902381 32.78° C 58% 1016.4 hPa - - - -
1787901778 32.78° C 57% 1016.7 hPa - - - -
1787901174 32.78° C 57% 1015.9 hPa - - - -
1787900570 33.33° C 56% 1015.8 hPa - - - -
1787899966 33.33° C 54% 1015.7 hPa - - - -
1787899363 32.78° C 56% 1015.6 hPa - - - -
1787898158 30.56° C 60% 1015.7 hPa - - - -
1787897552 28.89° C 62% 1015.6 hPa - - - -
1787896949 28.33° C 62% 1015.6 hPa - - - -
1787896344 28.33° C 63% 1015.4 hPa - - - -
1787895742 28.33° C 65% 1015.9 hPa - - - -

* Rain since midnight (hover to see other rain measurements)
** Current wind speed in m/s (hover to see current wind gust speed)